Reflectivity
-20 -20 -19 -20 -20 -20 -20 -20 -20 -20 -20 -20 -20 -20 -20 -20 -20 -20 -20 -20 -20 -20 -20 -20 -20 -20 -6 -20 -20 -20 -20 -20 -20
-20 -20 -20 -20 6 16 -20 -20 -20 -20 -20 -20 -20 -20 -20 -20 -20 -20 -20 -20 -20 -20 -20 -20 -20 -20 -20 -20 -20 -11 -20 -20 -20
-20 -20 -20 -20 -20 -20 -20 -15 -20 -4 -20 -14 -20 -20 -20 -20 -20 -20 -20 -20 -20 -20 -20 -20 -20 -20 -20 -20 -20 -20 -20 -20 -20
-20 -20 -2 -20 -20 25 3 -20 -20 3 -12 -13 1 -20 -20 -20 -20 -20 -20 -20 -14 -20 -20 -20 -20 -20 -20 -20 -20 -20 -20 -20 -20
-20 -20 -20 -20 -20 -18 -20 -20 -20 -20 -20 -20 -20 -20 -20 -20 -20 -20 -20 -20 -20 2 -20 -20 -20 -20 -20 -20 -20 -20 -20 -20 -20
11 -20 -20 -20 12 16 13 -20 -20 -20 -20 -20 -20 -20 -20 -20 -20 -20 -20 -20 -20 4 -11 -20 -20 -20 -20 -20 -20 -20 -20 -20 -20
28 -3 10 -15 -1 -8 -10 21 -20 -20 -20 -20 -20 -20 -20 -20 -20 -20 -20 -20 -20 -11 7 -20 -20 -20 -20 -20 -20 -20 -20 -20 -20
6 24 -20 -14 28 -20 -20 -20 -17 -20 -20 -20 -20 -20 -20 -20 -20 -20 -20 -20 -20 -20 -2 13 -20 -20 -20 -20 -20 -20 -20 -20 -20
-20 10 21 28 -20 -20 -20 -20 -20 -20 -20 -20 -20 -20 -20 -20 -20 -20 -20 -20 -20 -20 -20 -8 9 -20 -17 -20 -20 -20 -20 -20 -20
-20 -17 -20 9 23 -20 -20 -20 -20 -20 -20 -20 -20 -20 -20 -20 -20 -20 -20 -20 -20 -20 -20 -20 -14 -17 -11 12 10 8 3 1 -1
-20 5 20 -20 21 21 26 27 30 12 -19 -20 -20 -20 -20 -20 -20 -20 -20 -20 -20 -20 -20 -20 -20 1 10 0 2 -3 2 4 3
-14 10 13 17 -20 23 24 25 24 24 29 -16 -19 -20 -20 -20 -20 -20 -20 -20 -20 -20 -20 -20 -20 -20 -20 -19 19 11 -20 -20 -20
-16 -15 -11 23 20 28 9 24 24 23 25 27 21 6 -20 -20 -20 -20 -14 -20 -18 -20 -20 -20 -20 -13 -20 -20 -20 -20 -20 7 -20
-20 -20 -20 -3 23 15 20 -12 25 25 22 23 24 -20 -20 -20 -20 -20 -20 -20 -20 -20 -20 -20 -20 -20 -20 -20 -20 -20 -20 -20 -20
-20 -20 -20 -20 11 25 2 17 13 -4 10 6 -3 -20 -20 -20 -20 -20 -20 -20 -20 -20 -20 -20 -20 -20 -20 -20 -20 -20 -20 19 -3
-20 -20 -20 -20 -17 26 25 21 27 28 29 16 16 12 -20 -20 -20 -20 -20 -20 -20 -20 -20 -20 -20 -20 -20 -20 -20 -20 -20 -20 -20
-20 -20 -20 -20 -20 10 14 18 21 4 21 17 -19 -20 -20 -20 -20 -20 -20 -20 -20 -20 -20 -20 -20 -20 -20 -20 -20 -20 -20 -20 -20
-20 -20 -20 -20 -20 -14 21 20 47 22 23 26 16 25 -16 -20 -20 -20 -20 -20 -20 -20 -20 -20 -20 -20 -20 -20 -20 -20 -20 -20 -20
-20 -20 -20 -20 -20 -20 -0 23 22 32 25 21 17 21 -20 9 -20 -20 -20 -20 -20 -20 -20 -20 -20 -20 -20 -20 -20 -20 -20 -20 -20
-19 3 -11 7 3 -19 24 22 15 11 -1 34 40 4 -20 -3 -1 -7 -20 -20 -20 -20 -20 -20 -20 -20 -20 -20 -20 -20 -20 -20 -20
Wind_Speed
9 8 5 3 8 9 9 9 8 8 8 10 10 8 5 4 4 4 4 2 4 5 6 6 5 5 6 6 6 6 6 6 6
9 9 7 6 8 10 10 10 10 9 9 9 8 7 4 4 4 5 4 3 4 5 6 6 6 5 4 4 5 5 5 5 4
9 10 9 9 11 11 11 10 10 11 10 10 8 7 5 3 3 4 3 6 6 6 6 6 6 5 4 4 4 4 4 3 3
11 11 10 12 14 13 12 11 10 11 10 7 7 7 7 4 3 4 3 8 9 7 7 7 7 6 6 5 5 5 4 4 3
10 10 10 12 14 13 12 12 11 10 8 8 8 8 7 4 3 3 4 10 11 9 9 9 8 8 7 6 6 6 5 4 4
8 7 9 11 12 12 13 13 12 11 10 9 8 7 3 4 3 3 7 11 12 12 10 10 10 10 9 8 8 7 7 7 6
7 7 11 12 12 12 13 13 12 9 4 4 6 3 4 3 4 3 9 10 13 14 11 12 12 11 11 10 10 10 9 9 9
3 3 3 4 8 4 7 7 5 6 4 4 4 4 4 3 3 4 9 11 12 14 16 13 13 13 13 12 12 12 11 11 11
5 4 6 6 5 6 5 4 6 6 6 6 5 5 4 3 3 5 10 12 14 14 16 15 15 14 14 14 14 14 13 13 13
4 5 6 6 6 7 7 7 7 8 7 6 6 6 6 5 3 3 9 12 14 16 16 19 18 17 16 15 15 14 15 15 15
4 6 7 6 6 7 7 8 8 8 7 7 7 6 5 5 5 4 5 12 14 15 17 18 19 19 18 17 16 16 17 18 18
7 5 6 7 6 7 6 5 5 5 5 6 6 5 5 5 6 6 6 6 12 14 17 18 19 19 20 20 18 17 17 18 18
7 5 5 5 4 7 7 7 7 6 6 6 6 5 4 6 7 7 6 5 5 9 16 16 18 19 21 23 22 19 18 18 18
5 6 5 4 4 4 5 5 7 6 6 6 4 4 5 6 6 8 6 6 6 5 8 13 15 17 20 24 25 23 21 19 19
6 5 5 4 4 5 5 7 7 3 5 4 4 4 4 4 5 6 5 5 6 5 7 5 7 15 20 22 24 25 23 22 20
6 4 5 4 4 5 5 4 6 6 3 3 1 2 5 6 6 4 4 6 6 6 7 5 5 6 15 19 20 22 23 24 23
5 5 5 5 4 5 4 7 4 3 4 3 2 3 4 3 4 4 4 6 4 5 7 7 8 7 6 8 15 19 23 25 23
5 5 5 4 4 3 4 3 5 4 2 3 4 2 3 2 2 3 4 5 3 5 6 7 8 8 7 9 11 15 19 22 25
4 5 4 4 2 4 3 1 1 4 3 1 2 2 3 2 5 1 3 5 6 7 6 7 8 7 7 10 13 14 15 20 23
6 2 3 4 3 5 5 5 4 3 2 3 3 2 2 4 6 7 4 3 5 7 7 8 9 9 8 7 9 15 20 23 23
Wind_Direction
222 226 233 244 173 156 159 159 159 162 165 164 162 160 158 124 173 181 204 204 194 139 138 135 128 122 122 119 115 112 107 108 106
220 218 217 216 188 182 178 176 175 173 178 180 175 162 148 136 149 168 190 225 195 164 159 158 154 147 138 129 126 117 112 109 105
227 217 209 210 199 192 193 193 195 186 193 192 178 165 163 121 167 185 197 228 221 188 184 182 179 174 169 159 147 141 138 135 128
234 222 221 217 211 205 197 195 204 196 196 207 182 178 172 163 182 197 213 234 235 208 205 204 202 198 193 191 183 180 179 174 173
241 233 229 221 211 203 200 199 205 216 211 213 209 201 189 182 208 224 218 227 233 219 216 218 218 215 212 212 212 209 209 212 211
243 234 223 223 220 215 206 201 205 204 211 219 226 222 194 188 213 231 245 234 234 242 222 229 229 229 225 224 227 228 228 230 233
233 228 232 229 228 221 218 213 207 205 199 211 222 206 206 216 218 220 238 246 245 247 235 231 239 238 234 231 233 236 238 238 238
239 237 222 225 235 228 223 215 206 195 192 209 212 208 202 200 218 242 251 245 250 248 253 234 233 242 243 241 240 242 244 246 246
247 240 231 212 208 209 213 207 199 197 199 203 210 219 225 219 219 229 241 251 254 258 255 254 241 240 246 245 245 243 244 248 250
236 244 236 225 212 209 207 209 208 207 201 202 204 211 218 228 231 234 232 242 250 252 259 254 250 243 244 251 253 249 248 248 248
244 248 246 233 218 220 223 219 212 215 201 206 204 216 215 220 221 224 243 239 245 251 252 255 255 256 250 250 253 239 237 242 242
266 239 237 237 220 220 209 219 222 216 213 207 208 205 212 227 234 236 230 229 233 239 249 250 251 252 255 260 257 252 253 245 245
261 264 243 239 246 216 214 216 215 217 209 223 218 224 217 230 236 236 227 229 235 233 237 243 245 247 248 252 256 255 250 248 245
255 251 254 216 218 236 219 221 215 208 213 215 192 202 215 231 246 244 231 223 224 226 237 239 243 246 249 252 254 252 249 248 246
246 248 244 210 213 222 225 227 218 200 203 201 198 213 222 227 235 248 246 236 227 221 230 231 242 242 248 252 255 258 258 252 248
243 226 229 204 218 230 217 210 221 223 167 140 347 274 244 240 233 234 246 256 248 234 241 243 240 248 241 245 251 256 259 257 251
244 231 227 200 210 218 230 221 236 151 164 138 136 3 331 334 244 224 235 251 250 249 239 239 242 246 245 239 241 247 257 262 259
268 251 217 210 172 186 214 227 233 131 174 240 136 100 243 307 306 259 242 266 267 261 258 248 241 236 236 245 252 245 249 259 268
287 257 197 189 159 126 112 192 15 70 107 22 45 141 166 270 310 307 269 244 252 255 257 261 252 239 236 236 238 245 247 255 265
34 81 126 106 99 97 113 100 77 41 90 94 243 191 234 229 241 285 281 299 259 247 245 250 250 244 235 238 244 239 247 255 262